Trapani / Birgi Airport LICT

Flugplatz Daten

Name: Trapani / Birgi Airport

Ident: LICT

Lat: 37,91139984

Long: 12,48799992

Platzhöhe: 25 ft

IataCode: TPS

City: Trapani

Metar

2022/08/13 17:55
LICT 131755Z 32007KT 9999 FEW022 29/25 Q1011 RMK SCT SCT200 VIS MIN 9999 WIND THR13 31006KT BLU

Taf

2021/10/13 09:24
TAF TAF LICT 130800Z 1309/1321 26012KT 9999 SCT025 SCT040
TEMPO 1309/1313 SHRA FEW018CB BKN020
TEMPO 1313/1321 5000 TSRA BKN012 FEW018CB
Gewünschte Webcam nicht vorhanden? Dann fügen Sie eine hinzu. Sie wird dann so schnell wie möglich freigeschaltet
Url: Title: